N172SP KSLC-

Flight info

Callsign N172SP
Flight time N/A
Altitude VFR/050
Route /N/
Aircraft C172/L-VGD/C

Departure

Time 2026-05-05 05:49
Airport Salt Lake City International Airport (KSLC)

Arrival

Time N/A
Airport -
Time Latitude Longitude Altitude Speed Heading
2026-05-05 05:33 40.77967 -111.95839 4230 ft 0 kts
2026-05-05 05:38 40.77974 -111.95839 4229 ft 0 kts
2026-05-05 05:39 40.77979 -111.95840 4229 ft 3 kts 353°
2026-05-05 05:39 40.77995 -111.95861 4229 ft 0 kts 271°
2026-05-05 05:39 40.77994 -111.95867 4229 ft 0 kts 256°
2026-05-05 05:40 40.77946 -111.95898 4229 ft 11 kts 186°
2026-05-05 05:40 40.77921 -111.95900 4229 ft 0 kts 177°
2026-05-05 05:40 40.77872 -111.95897 4229 ft 9 kts 183°
2026-05-05 05:40 40.77829 -111.95940 4229 ft 9 kts 263°
2026-05-05 05:41 40.77833 -111.96003 4229 ft 7 kts 261°
2026-05-05 05:41 40.77838 -111.96043 4229 ft 6 kts 18°
2026-05-05 05:41 40.77867 -111.96010 4229 ft 0 kts 28°
2026-05-05 05:41 40.77922 -111.96001 4229 ft 18 kts 356°
2026-05-05 05:42 40.78078 -111.96002 4229 ft 19 kts
2026-05-05 05:42 40.78196 -111.96000 4228 ft 13 kts
2026-05-05 05:42 40.78289 -111.96003 4226 ft 12 kts 360°
2026-05-05 05:42 40.78371 -111.96003 4225 ft 10 kts 359°
2026-05-05 05:43 40.78443 -111.96003 4225 ft 13 kts
2026-05-05 05:43 40.78584 -111.96005 4226 ft 23 kts
2026-05-05 05:43 40.78744 -111.96004 4225 ft 21 kts 359°
2026-05-05 05:43 40.78876 -111.96000 4226 ft 16 kts 360°
2026-05-05 05:44 40.78986 -111.96003 4226 ft 15 kts 359°
2026-05-05 05:44 40.79097 -111.96004 4225 ft 16 kts
2026-05-05 05:44 40.79223 -111.96004 4224 ft 20 kts
2026-05-05 05:44 40.79378 -111.96004 4223 ft 22 kts
2026-05-05 05:45 40.79526 -111.96004 4224 ft 20 kts
2026-05-05 05:45 40.79665 -111.96003 4224 ft 19 kts
2026-05-05 05:45 40.79791 -111.96003 4224 ft 15 kts
2026-05-05 05:45 40.79865 -111.96001 4225 ft 1 kts 358°
2026-05-05 05:46 40.79888 -111.96005 4225 ft 6 kts 354°
2026-05-05 05:46 40.79901 -111.96024 4224 ft 4 kts 274°
2026-05-05 05:46 40.79901 -111.96033 4224 ft 0 kts 252°
2026-05-05 05:47 40.79896 -111.96044 4224 ft 2 kts 237°
2026-05-05 05:47 40.79888 -111.96087 4225 ft 7 kts 262°
2026-05-05 05:47 40.79881 -111.96134 4225 ft 9 kts 250°
2026-05-05 05:48 40.79787 -111.96203 4225 ft 22 kts 181°
2026-05-05 05:48 40.79526 -111.96209 4225 ft 55 kts 179°
2026-05-05 05:48 40.79099 -111.96207 4294 ft 66 kts 173°
2026-05-05 05:48 40.78612 -111.96205 4384 ft 70 kts 173°
2026-05-05 05:49 40.78112 -111.96207 4489 ft 73 kts 179°
2026-05-05 05:49 40.77620 -111.96256 4672 ft 67 kts 180°
2026-05-05 05:49 40.77163 -111.96233 4777 ft 70 kts 148°
2026-05-05 05:49 40.77000 -111.95583 4908 ft 82 kts 103°
2026-05-05 05:50 40.77187 -111.94838 5036 ft 100 kts 52°
2026-05-05 05:50 40.77848 -111.94464 5161 ft 109 kts
2026-05-05 05:50 40.78651 -111.94346 5268 ft 113 kts
2026-05-05 05:50 40.79397 -111.94240 5425 ft 112 kts 13°
2026-05-05 05:51 40.80181 -111.94138 5575 ft 109 kts
2026-05-05 05:51 40.80952 -111.94122 5664 ft 115 kts
2026-05-05 05:51 40.81770 -111.94016 5554 ft 122 kts 16°
2026-05-05 05:51 40.82579 -111.93828 5569 ft 116 kts 15°
2026-05-05 05:52 40.83403 -111.93636 5496 ft 125 kts 15°
2026-05-05 05:52 40.84244 -111.93448 5549 ft 118 kts 14°
2026-05-05 05:52 40.85053 -111.93289 5556 ft 119 kts 10°
2026-05-05 05:52 40.85899 -111.93203 5534 ft 121 kts
2026-05-05 05:53 40.86739 -111.93123 5529 ft 122 kts
2026-05-05 05:53 40.87585 -111.93045 5520 ft 123 kts
2026-05-05 05:53 40.88416 -111.92985 5577 ft 116 kts
2026-05-05 05:53 40.89237 -111.92844 5533 ft 120 kts 14°
2026-05-05 05:54 40.90049 -111.92625 5541 ft 119 kts 22°
2026-05-05 05:54 40.90828 -111.92259 5515 ft 120 kts 27°
2026-05-05 05:54 40.91582 -111.91779 5537 ft 115 kts 30°
2026-05-05 05:54 40.92269 -111.91335 5500 ft 118 kts 36°
2026-05-05 05:55 40.92946 -111.90780 5515 ft 115 kts 40°
2026-05-05 05:55 40.93111 -111.90640 5514 ft 115 kts 39°
2026-05-05 05:56 40.93412 -111.90376 5516 ft 114 kts 40°
2026-05-05 05:56 40.93809 -111.90011 5502 ft 114 kts 44°
2026-05-05 05:56 40.94320 -111.89503 5546 ft 109 kts 45°
2026-05-05 05:57 40.94960 -111.88939 5562 ft 112 kts 37°
2026-05-05 05:57 40.95682 -111.88529 5584 ft 115 kts 20°
2026-05-05 05:57 40.96474 -111.88255 5570 ft 120 kts 15°
2026-05-05 05:57 40.96714 -111.88193 5586 ft 118 kts 12°
2026-05-05 05:58 40.96905 -111.88150 5599 ft 117 kts 10°
2026-05-05 05:58 40.97730 -111.88108 5545 ft 118 kts
2026-05-05 05:59 40.98545 -111.88173 5531 ft 115 kts 351°
2026-05-05 05:59 40.99294 -111.88500 5518 ft 114 kts 329°
2026-05-05 05:59 40.99961 -111.89035 5519 ft 111 kts 319°
2026-05-05 05:59 41.00607 -111.89596 5528 ft 109 kts 319°
2026-05-05 06:00 41.01220 -111.90207 5492 ft 112 kts 311°
2026-05-05 06:00 41.01766 -111.90913 5487 ft 106 kts 306°
2026-05-05 06:00 41.02258 -111.91631 5475 ft 106 kts 300°
2026-05-05 06:00 41.02727 -111.92386 5470 ft 104 kts 299°
2026-05-05 06:01 41.03197 -111.93153 5461 ft 107 kts 298°
2026-05-05 06:01 41.03595 -111.93943 5495 ft 101 kts 288°
2026-05-05 06:01 41.03896 -111.94794 5479 ft 100 kts 285°
2026-05-05 06:01 41.04168 -111.95631 5464 ft 99 kts 278°
2026-05-05 06:02 41.04318 -111.96495 5470 ft 95 kts 266°
2026-05-05 06:02 41.04391 -111.97367 5454 ft 95 kts 263°
2026-05-05 06:02 41.04389 -111.98227 5433 ft 92 kts 250°